Simultaneous Nadir Overpasses (SNOs) Predictions

Prediction of SNOs between AQUA and NPP Satellite Orbit:

Table of predicted SNOs for the next 14.0 days since TLE Epoch: 4/30/2016
Index Date (AQUA) Time (AQUA) Lat,Lon (AQUA) SZA (AQUA ) Date (NPP) Time (NPP) Lat,Lon (NPP) SZA (NPP ) Distance(km) Time Diff (sec)
1 04/30/2016 05:33:53 -73.50, 149.39 94.74 04/30/2016 05:32:44 -73.49, 149.33 94.66 1.98 69
2 04/30/2016 06:22:46 75.15, -39.05 83.43 04/30/2016 06:22:54 75.15, -39.06 83.43 0.52 8
3 05/02/2016 21:50:02 -74.31, -92.91 96.42 05/02/2016 21:49:22 -74.31, -92.91 96.39 0.13 40
4 05/02/2016 22:38:57 75.83, 78.77 81.86 05/02/2016 22:39:34 75.84, 78.84 81.81 2.11 37
5 05/05/2016 14:06:20 -74.69, 23.90 97.61 05/05/2016 14:06:10 -74.68, 23.83 97.58 2.35 10
6 05/05/2016 14:55:17 76.10,-164.53 80.79 05/05/2016 14:56:24 76.10,-164.53 80.73 0.13 67
7 05/08/2016 05:33:34 73.84, -29.85 82.62 05/08/2016 05:32:37 73.83, -29.89 82.68 1.02 57
8 05/08/2016 06:22:28 -75.56, 142.09 99.31 05/08/2016 06:22:47 -75.56, 142.16 99.34 2.17 19
9 05/10/2016 21:49:48 74.40, 87.34 81.31 05/10/2016 21:49:21 74.40, 87.29 81.35 1.60 27
10 05/10/2016 22:38:44 -76.00,-100.71 100.51 05/10/2016 22:39:33 -76.00,-100.63 100.57 2.12 49
11 05/13/2016 13:17:22 -72.56, 31.69 97.33 05/13/2016 13:16:08 -72.59, 31.58 97.26 4.79 74
12 05/13/2016 14:06:00 75.00,-155.27 79.99 05/13/2016 14:06:03 75.00,-155.30 80.00 1.02 3




NCC Satellite Simultaneous Nadir Overpasses (SNOs) Prediction Service
